Location: Newark
(35.5300°N, 14.3000°E)
Time: 15:33:24
(UTC+00:00)

S-56A Canister/Altair - Pass Details

Date: 22 November 2019
Orbit: 633 x 2499 km, 38.9° (Epoch: 10 December)

Event Time Altitude Azimuth Distance (km) Brightness Sun altitude
Rises 19:59:30 0° 289° (WNW) 4,109 11.9 -49.9°
Reaches altitude 10° 20:02:48 10° 286° (WNW) 2,863 10.9 -50.6°
Enters shadow 20:03:24 12° 285° (WNW) 2,630 10.7 -50.7°
